| time (UTC) | temp F | wind direction | speed MPH | gust MPH | rain 1hr in | rain 24hr in | rain mn in | humidity % | barometer mb |
| 20260906015038 | 60 | 338 | 4.0 | 4.0 | 0.00 | 0.00 | 0.00 | 61 | 1013.8 |
| 20260906014535 | 60 | 338 | 4.0 | 4.0 | 0.00 | 0.00 | 0.00 | 61 | 1013.8 |
| 20260906014039 | 60 | 338 | 4.0 | 4.0 | 0.00 | 0.00 | 0.00 | 60 | 1013.8 |
| 20260906013538 | 60 | 338 | 4.0 | 4.0 | 0.00 | 0.00 | 0.00 | 60 | 1013.8 |
| 20260906013038 | 60 | 0 | 4.0 | 4.0 | 0.00 | 0.00 | 0.00 | 59 | 1013.5 |
| 20260906012538 | 60 | 0 | 4.0 | 4.0 | 0.00 | 0.00 | 0.00 | 59 | 1013.5 |
| 20260906012043 | 60 | 0 | 3.0 | 3.0 | 0.00 | 0.00 | 0.00 | 59 | 1013.6 |
| 20260906011538 | 60 | 0 | 3.0 | 3.0 | 0.00 | 0.00 | 0.00 | 59 | 1013.6 |
| 20260906011037 | 60 | 0 | 6.0 | 6.0 | 0.00 | 0.00 | 0.00 | 58 | 1013.6 |
| 20260906010537 | 60 | 0 | 6.0 | 6.0 | 0.00 | 0.00 | 0.00 | 58 | 1013.6 |
| 20260906010044 | 60 | 338 | 6.0 | 6.0 | 0.00 | 0.00 | 0.00 | 60 | 1013.7 |
| 20260906005537 | 60 | 338 | 6.0 | 6.0 | 0.00 | 0.00 | 0.00 | 60 | 1013.7 |
| 20260906005037 | 60 | 338 | 8.0 | 8.0 | 0.00 | 0.00 | 0.00 | 60 | 1013.6 |
| 20260906004538 | 60 | 338 | 8.0 | 8.0 | 0.00 | 0.00 | 0.00 | 60 | 1013.6 |
| 20260906004036 | 60 | 338 | 4.0 | 4.0 | 0.00 | 0.00 | 0.00 | 60 | 1013.6 |
| 20260906003537 | 60 | 338 | 4.0 | 4.0 | 0.00 | 0.00 | 0.00 | 60 | 1013.6 |
| 20260906003046 | 61 | 338 | 5.0 | 5.0 | 0.00 | 0.00 | 0.00 | 59 | 1013.7 |
| 20260906002537 | 61 | 338 | 5.0 | 5.0 | 0.00 | 0.00 | 0.00 | 59 | 1013.7 |
| 20260906002043 | 61 | 338 | 5.0 | 5.0 | 0.00 | 0.00 | 0.00 | 59 | 1013.7 |
| 20260906001537 | 61 | 338 | 5.0 | 5.0 | 0.00 | 0.00 | 0.00 | 59 | 1013.7 |
| 20260906001038 | 61 | 338 | 5.0 | 5.0 | 0.00 | 0.00 | 0.00 | 59 | 1013.7 |
| 20260906000539 | 61 | 338 | 5.0 | 5.0 | 0.00 | 0.00 | 0.00 | 59 | 1013.7 |
| 20260906000049 | 61 | 338 | 5.0 | 5.0 | 0.00 | 0.00 | 0.00 | 58 | 1013.7 |
| 20260905235536 | 61 | 338 | 5.0 | 5.0 | 0.00 | 0.00 | 0.00 | 58 | 1013.7 |
| 20260905235035 | 61 | 338 | 5.0 | 5.0 | 0.00 | 0.00 | 0.00 | 59 | 1013.4 |
| 20260905234539 | 61 | 338 | 5.0 | 5.0 | 0.00 | 0.00 | 0.00 | 59 | 1013.4 |
| 20260905234049 | 61 | 338 | 5.0 | 5.0 | 0.00 | 0.00 | 0.00 | 58 | 1013.4 |
| 20260905233537 | 61 | 338 | 5.0 | 5.0 | 0.00 | 0.00 | 0.00 | 58 | 1013.4 |
| 20260905233038 | 62 | 338 | 5.0 | 5.0 | 0.00 | 0.00 | 0.00 | 58 | 1013.2 |
| 20260905232537 | 62 | 338 | 5.0 | 5.0 | 0.00 | 0.00 | 0.00 | 58 | 1013.2 |
| 20260905232038 | 62 | 0 | 5.0 | 5.0 | 0.00 | 0.00 | 0.00 | 57 | 1013.2 |
| 20260905231538 | 62 | 0 | 5.0 | 5.0 | 0.00 | 0.00 | 0.00 | 57 | 1013.2 |
| 20260905231037 | 62 | 338 | 5.0 | 5.0 | 0.00 | 0.00 | 0.00 | 56 | 1013.2 |
| 20260905230537 | 62 | 338 | 5.0 | 5.0 | 0.00 | 0.00 | 0.00 | 56 | 1013.2 |
| 20260905230038 | 62 | 338 | 5.0 | 5.0 | 0.00 | 0.00 | 0.00 | 57 | 1013.2 |
| 20260905225538 | 62 | 338 | 5.0 | 5.0 | 0.00 | 0.00 | 0.00 | 57 | 1013.2 |
| 20260905225038 | 62 | 338 | 7.0 | 7.0 | 0.00 | 0.00 | 0.00 | 57 | 1013.2 |
| 20260905224556 | 62 | 338 | 7.0 | 7.0 | 0.00 | 0.00 | 0.00 | 57 | 1013.2 |
| 20260905224037 | 62 | 338 | 4.0 | 4.0 | 0.00 | 0.00 | 0.00 | 56 | 1013.2 |
| 20260905223536 | 62 | 338 | 4.0 | 4.0 | 0.00 | 0.00 | 0.00 | 56 | 1013.2 |
| 20260905223038 | 62 | 338 | 5.0 | 5.0 | 0.00 | 0.00 | 0.00 | 56 | 1013.4 |
| 20260905222538 | 62 | 338 | 5.0 | 5.0 | 0.00 | 0.00 | 0.00 | 56 | 1013.4 |
| 20260905222045 | 62 | 338 | 4.0 | 4.0 | 0.00 | 0.00 | 0.00 | 57 | 1013.2 |
| 20260905221536 | 62 | 338 | 4.0 | 4.0 | 0.00 | 0.00 | 0.00 | 57 | 1013.2 |
| 20260905221057 | 62 | 338 | 5.0 | 5.0 | 0.00 | 0.00 | 0.00 | 58 | 1013.2 |
| 20260905220555 | 62 | 338 | 5.0 | 5.0 | 0.00 | 0.00 | 0.00 | 58 | 1013.2 |
| 20260905220038 | 62 | 338 | 5.0 | 5.0 | 0.00 | 0.00 | 0.00 | 58 | 1013.1 |
| 20260905215537 | 62 | 338 | 5.0 | 5.0 | 0.00 | 0.00 | 0.00 | 58 | 1013.1 |
| 20260905215038 | 62 | 338 | 6.0 | 6.0 | 0.00 | 0.00 | 0.00 | 59 | 1013.1 |
| 20260905214537 | 62 | 338 | 6.0 | 6.0 | 0.00 | 0.00 | 0.00 | 59 | 1013.1 |
| 20260905214037 | 62 | 338 | 4.0 | 4.0 | 0.00 | 0.00 | 0.00 | 59 | 1013.1 |
| 20260905213038 | 62 | 338 | 5.0 | 5.0 | 0.00 | 0.00 | 0.00 | 59 | 1013.2 |
| 20260905212539 | 62 | 338 | 5.0 | 5.0 | 0.00 | 0.00 | 0.00 | 59 | 1013.2 |
| 20260905212046 | 63 | 338 | 6.0 | 6.0 | 0.00 | 0.00 | 0.00 | 60 | 1012.9 |
| 20260905211536 | 63 | 338 | 6.0 | 6.0 | 0.00 | 0.00 | 0.00 | 60 | 1012.9 |
| 20260905211036 | 63 | 338 | 4.0 | 4.0 | 0.00 | 0.00 | 0.00 | 60 | 1012.9 |
| 20260905210538 | 63 | 338 | 4.0 | 4.0 | 0.00 | 0.00 | 0.00 | 60 | 1012.9 |
| 20260905210038 | 63 | 338 | 4.0 | 4.0 | 0.00 | 0.00 | 0.00 | 61 | 1013.1 |
| 20260905205538 | 63 | 338 | 4.0 | 4.0 | 0.00 | 0.00 | 0.00 | 61 | 1013.1 |
| 20260905205036 | 63 | 338 | 7.0 | 7.0 | 0.00 | 0.00 | 0.00 | 61 | 1012.9 |
| 20260905204555 | 63 | 338 | 7.0 | 7.0 | 0.00 | 0.00 | 0.00 | 61 | 1012.9 |
| 20260905204037 | 64 | 315 | 6.0 | 6.0 | 0.00 | 0.00 | 0.00 | 61 | 1012.9 |
| 20260905203537 | 64 | 315 | 6.0 | 6.0 | 0.00 | 0.00 | 0.00 | 61 | 1012.9 |
| 20260905203045 | 64 | 338 | 7.0 | 7.0 | 0.00 | 0.00 | 0.00 | 61 | 1013.1 |
| 20260905202536 | 64 | 338 | 7.0 | 7.0 | 0.00 | 0.00 | 0.00 | 61 | 1013.1 |
| 20260905202039 | 64 | 0 | 9.0 | 9.0 | 0.00 | 0.00 | 0.00 | 61 | 1012.9 |
| 20260905201536 | 64 | 0 | 9.0 | 9.0 | 0.00 | 0.00 | 0.00 | 61 | 1012.9 |
| 20260905201101 | 64 | 338 | 7.0 | 7.0 | 0.00 | 0.00 | 0.00 | 60 | 1012.9 |
| 20260905200537 | 64 | 338 | 7.0 | 7.0 | 0.00 | 0.00 | 0.00 | 60 | 1012.9 |
| 20260905200038 | 65 | 338 | 6.0 | 6.0 | 0.00 | 0.00 | 0.00 | 60 | 1012.5 |
| 20260905195538 | 65 | 338 | 6.0 | 6.0 | 0.00 | 0.00 | 0.00 | 60 | 1012.5 |
| 20260905195038 | 65 | 338 | 9.0 | 9.0 | 0.00 | 0.00 | 0.00 | 60 | 1012.1 |
| 20260905194537 | 65 | 338 | 9.0 | 9.0 | 0.00 | 0.00 | 0.00 | 60 | 1012.1 |
| 20260905194036 | 66 | 338 | 7.0 | 7.0 | 0.00 | 0.00 | 0.00 | 58 | 1011.8 |
| 20260905193536 | 66 | 338 | 7.0 | 7.0 | 0.00 | 0.00 | 0.00 | 58 | 1011.8 |
| 20260905193038 | 66 | 338 | 7.0 | 7.0 | 0.00 | 0.00 | 0.00 | 58 | 1011.8 |
| 20260905192556 | 66 | 338 | 7.0 | 7.0 | 0.00 | 0.00 | 0.00 | 58 | 1011.8 |
| 20260905192057 | 67 | 338 | 9.0 | 9.0 | 0.00 | 0.00 | 0.00 | 57 | 1011.8 |
| 20260905191557 | 67 | 338 | 9.0 | 9.0 | 0.00 | 0.00 | 0.00 | 57 | 1011.8 |
| 20260905191038 | 67 | 22 | 7.0 | 7.0 | 0.00 | 0.00 | 0.00 | 57 | 1011.8 |
| 20260905190557 | 67 | 22 | 7.0 | 7.0 | 0.00 | 0.00 | 0.00 | 57 | 1011.8 |
| 20260905190037 | 67 | 45 | 7.0 | 7.0 | 0.00 | 0.00 | 0.00 | 57 | 1011.7 |
| 20260905185537 | 67 | 45 | 7.0 | 7.0 | 0.00 | 0.00 | 0.00 | 57 | 1011.7 |
| 20260905185037 | 68 | 22 | 6.0 | 6.0 | 0.00 | 0.00 | 0.00 | 58 | 1011.8 |
| 20260905184536 | 68 | 22 | 6.0 | 6.0 | 0.00 | 0.00 | 0.00 | 58 | 1011.8 |
| 20260905184036 | 68 | 338 | 7.0 | 7.0 | 0.00 | 0.00 | 0.00 | 58 | 1011.8 |
| 20260905183555 | 68 | 338 | 7.0 | 7.0 | 0.00 | 0.00 | 0.00 | 58 | 1011.8 |
| 20260905183038 | 69 | 45 | 9.0 | 9.0 | 0.00 | 0.00 | 0.00 | 58 | 1011.5 |
| 20260905182538 | 69 | 45 | 9.0 | 9.0 | 0.00 | 0.00 | 0.00 | 58 | 1011.5 |
| 20260905182036 | 69 | 22 | 6.0 | 6.0 | 0.00 | 0.00 | 0.00 | 61 | 1011.3 |
| 20260905181540 | 69 | 22 | 6.0 | 6.0 | 0.00 | 0.00 | 0.00 | 61 | 1011.3 |
| 20260905181059 | 69 | 45 | 4.0 | 4.0 | 0.00 | 0.00 | 0.00 | 62 | 1011.3 |
| 20260905180555 | 69 | 45 | 4.0 | 4.0 | 0.00 | 0.00 | 0.00 | 62 | 1011.3 |
| 20260905180038 | 69 | 22 | 4.0 | 4.0 | 0.00 | 0.00 | 0.00 | 61 | 1011.0 |
| 20260905175535 | 69 | 22 | 4.0 | 4.0 | 0.00 | 0.00 | 0.00 | 61 | 1011.0 |
| 20260905175037 | 70 | 22 | 6.0 | 6.0 | 0.00 | 0.00 | 0.00 | 60 | 1011.3 |
| 20260905174536 | 70 | 22 | 6.0 | 6.0 | 0.00 | 0.00 | 0.00 | 60 | 1011.3 |
| 20260905174036 | 70 | 0 | 4.0 | 4.0 | 0.00 | 0.00 | 0.00 | 61 | 1011.3 |
| 20260905173556 | 70 | 0 | 4.0 | 4.0 | 0.00 | 0.00 | 0.00 | 61 | 1011.3 |
| 20260905173058 | 71 | 292 | 13.0 | 13.0 | 0.00 | 0.00 | 0.00 | 60 | 1011.1 |
| 20260905172554 | 71 | 292 | 13.0 | 13.0 | 0.00 | 0.00 | 0.00 | 60 | 1011.1 |
| 20260905172054 | 72 | 338 | 7.0 | 7.0 | 0.00 | 0.00 | 0.00 | 60 | 1010.5 |
| 20260905171553 | 72 | 338 | 7.0 | 7.0 | 0.00 | 0.00 | 0.00 | 60 | 1010.5 |
| 20260905171036 | 72 | 338 | 7.0 | 7.0 | 0.00 | 0.00 | 0.00 | 60 | 1010.5 |
| 20260905170538 | 72 | 338 | 7.0 | 7.0 | 0.00 | 0.00 | 0.00 | 60 | 1010.5 |
| 20260905170037 | 73 | 0 | 4.0 | 4.0 | 0.00 | 0.00 | 0.00 | 60 | 1010.5 |
| 20260905165537 | 73 | 0 | 4.0 | 4.0 | 0.00 | 0.00 | 0.00 | 60 | 1010.5 |
| 20260905165037 | 74 | 22 | 5.0 | 5.0 | 0.00 | 0.00 | 0.00 | 58 | 1010.2 |
| 20260905164537 | 74 | 22 | 5.0 | 5.0 | 0.00 | 0.00 | 0.00 | 58 | 1010.2 |
| 20260905164036 | 76 | 338 | 9.0 | 9.0 | 0.00 | 0.00 | 0.00 | 55 | 1010.2 |
| 20260905163556 | 76 | 338 | 9.0 | 9.0 | 0.00 | 0.00 | 0.00 | 55 | 1010.2 |
| 20260905163043 | 77 | 338 | 8.0 | 8.0 | 0.00 | 0.00 | 0.00 | 50 | 1010.1 |
| 20260905162538 | 77 | 338 | 8.0 | 8.0 | 0.00 | 0.00 | 0.00 | 50 | 1010.1 |
| 20260905162039 | 78 | 45 | 3.0 | 3.0 | 0.00 | 0.00 | 0.00 | 46 | 1010.0 |
| 20260905161536 | 78 | 45 | 3.0 | 3.0 | 0.00 | 0.00 | 0.00 | 46 | 1010.0 |
| 20260905161038 | 78 | 315 | 8.0 | 8.0 | 0.00 | 0.00 | 0.00 | 45 | 1010.0 |
| 20260905160537 | 78 | 315 | 8.0 | 8.0 | 0.00 | 0.00 | 0.00 | 45 | 1010.0 |
| 20260905160038 | 79 | 338 | 8.0 | 8.0 | 0.00 | 0.00 | 0.00 | 45 | 1010.2 |
| 20260905155557 | 79 | 338 | 8.0 | 8.0 | 0.00 | 0.00 | 0.00 | 45 | 1010.2 |
| 20260905155058 | 79 | 338 | 7.0 | 7.0 | 0.00 | 0.00 | 0.00 | 44 | 1009.8 |
| 20260905154556 | 79 | 338 | 7.0 | 7.0 | 0.00 | 0.00 | 0.00 | 44 | 1009.8 |
| 20260905154037 | 80 | 0 | 4.0 | 4.0 | 0.00 | 0.00 | 0.00 | 43 | 1009.8 |
| 20260905153537 | 80 | 0 | 4.0 | 4.0 | 0.00 | 0.00 | 0.00 | 43 | 1009.8 |
| 20260905153037 | 80 | 22 | 2.0 | 2.0 | 0.00 | 0.00 | 0.00 | 43 | 1009.8 |
| 20260905152552 | 80 | 22 | 2.0 | 2.0 | 0.00 | 0.00 | 0.00 | 43 | 1009.8 |
| 20260905152038 | 80 | 22 | 3.0 | 3.0 | 0.00 | 0.00 | 0.00 | 43 | 1009.8 |
| 20260905151537 | 80 | 22 | 3.0 | 3.0 | 0.00 | 0.00 | 0.00 | 43 | 1009.8 |
| 20260905151053 | 81 | 45 | 3.0 | 3.0 | 0.00 | 0.00 | 0.00 | 43 | 1009.8 |
| 20260905150555 | 81 | 45 | 3.0 | 3.0 | 0.00 | 0.00 | 0.00 | 43 | 1009.8 |
| 20260905150046 | 81 | 22 | 2.0 | 2.0 | 0.00 | 0.00 | 0.00 | 42 | 1009.8 |
| 20260905145535 | 81 | 22 | 2.0 | 2.0 | 0.00 | 0.00 | 0.00 | 42 | 1009.8 |
| 20260905145047 | 81 | 0 | 5.0 | 5.0 | 0.00 | 0.00 | 0.00 | 42 | 1009.7 |
| 20260905144537 | 81 | 0 | 5.0 | 5.0 | 0.00 | 0.00 | 0.00 | 42 | 1009.7 |
| 20260905144038 | 82 | 338 | 4.0 | 4.0 | 0.00 | 0.00 | 0.00 | 41 | 1009.7 |
| 20260905143554 | 82 | 338 | 4.0 | 4.0 | 0.00 | 0.00 | 0.00 | 41 | 1009.7 |
| 20260905143039 | 82 | 0 | 4.0 | 4.0 | 0.00 | 0.00 | 0.00 | 40 | 1009.7 |
| 20260905142538 | 82 | 0 | 4.0 | 4.0 | 0.00 | 0.00 | 0.00 | 40 | 1009.7 |
| 20260905142036 | 82 | 338 | 6.0 | 6.0 | 0.00 | 0.00 | 0.00 | 39 | 1009.8 |
| 20260905141537 | 82 | 338 | 6.0 | 6.0 | 0.00 | 0.00 | 0.00 | 39 | 1009.8 |
| 20260905141037 | 82 | 338 | 4.0 | 4.0 | 0.00 | 0.00 | 0.00 | 38 | 1009.8 |
| 20260905140535 | 82 | 338 | 4.0 | 4.0 | 0.00 | 0.00 | 0.00 | 38 | 1009.8 |
| 20260905135555 | 82 | 338 | 7.0 | 7.0 | 0.00 | 0.00 | 0.00 | 38 | 1009.8 |
| 20260905135037 | 82 | 22 | 4.0 | 4.0 | 0.00 | 0.00 | 0.00 | 38 | 1009.8 |
| 20260905134542 | 82 | 22 | 4.0 | 4.0 | 0.00 | 0.00 | 0.00 | 38 | 1009.8 |
| 20260905134037 | 82 | 0 | 4.0 | 4.0 | 0.00 | 0.00 | 0.00 | 38 | 1009.8 |
| 20260905133538 | 82 | 0 | 4.0 | 4.0 | 0.00 | 0.00 | 0.00 | 38 | 1009.8 |
| 20260905133038 | 82 | 0 | 6.0 | 6.0 | 0.00 | 0.00 | 0.00 | 38 | 1010.1 |
| 20260905132536 | 82 | 0 | 6.0 | 6.0 | 0.00 | 0.00 | 0.00 | 38 | 1010.1 |
| 20260905132044 | 82 | 45 | 0.0 | 0.0 | 0.00 | 0.00 | 0.00 | 37 | 1010.2 |
| 20260905131537 | 82 | 45 | 0.0 | 0.0 | 0.00 | 0.00 | 0.00 | 37 | 1010.2 |
| 20260905131035 | 82 | 45 | 0.0 | 0.0 | 0.00 | 0.00 | 0.00 | 37 | 1010.2 |
| 20260905130552 | 82 | 45 | 0.0 | 0.0 | 0.00 | 0.00 | 0.00 | 37 | 1010.2 |
| 20260905130057 | 83 | 338 | 5.0 | 5.0 | 0.00 | 0.00 | 0.00 | 38 | 1010.2 |
| 20260905125538 | 83 | 338 | 5.0 | 5.0 | 0.00 | 0.00 | 0.00 | 38 | 1010.2 |
| 20260905125036 | 83 | 0 | 0.0 | 0.0 | 0.00 | 0.00 | 0.00 | 36 | 1010.1 |
| 20260905124538 | 83 | 0 | 0.0 | 0.0 | 0.00 | 0.00 | 0.00 | 36 | 1010.1 |
| 20260905124048 | 82 | 338 | 5.0 | 5.0 | 0.00 | 0.00 | 0.00 | 37 | 1010.1 |
| 20260905123538 | 82 | 338 | 5.0 | 5.0 | 0.00 | 0.00 | 0.00 | 37 | 1010.1 |
| 20260905123043 | 82 | 315 | 6.0 | 6.0 | 0.00 | 0.00 | 0.00 | 38 | 1010.5 |
| 20260905122039 | 82 | 0 | 2.0 | 2.0 | 0.00 | 0.00 | 0.00 | 39 | 1010.5 |
| 20260905121537 | 82 | 0 | 2.0 | 2.0 | 0.00 | 0.00 | 0.00 | 39 | 1010.5 |
| 20260905121042 | 83 | 315 | 7.0 | 7.0 | 0.00 | 0.00 | 0.00 | 36 | 1010.5 |
| 20260905120536 | 83 | 315 | 7.0 | 7.0 | 0.00 | 0.00 | 0.00 | 36 | 1010.5 |
| 20260905120057 | 83 | 315 | 4.0 | 4.0 | 0.00 | 0.00 | 0.00 | 39 | 1010.7 |
| 20260905115538 | 83 | 315 | 4.0 | 4.0 | 0.00 | 0.00 | 0.00 | 39 | 1010.7 |
| 20260905115036 | 83 | 315 | 7.0 | 7.0 | 0.00 | 0.00 | 0.00 | 38 | 1010.6 |
| 20260905114537 | 83 | 315 | 7.0 | 7.0 | 0.00 | 0.00 | 0.00 | 38 | 1010.6 |
| 20260905114037 | 83 | 315 | 6.0 | 6.0 | 0.00 | 0.00 | 0.00 | 36 | 1010.6 |
| 20260905113538 | 83 | 315 | 6.0 | 6.0 | 0.00 | 0.00 | 0.00 | 36 | 1010.6 |
| 20260905113038 | 83 | 315 | 7.0 | 7.0 | 0.00 | 0.00 | 0.00 | 38 | 1010.8 |
| 20260905112538 | 83 | 315 | 7.0 | 7.0 | 0.00 | 0.00 | 0.00 | 38 | 1010.8 |
| 20260905112036 | 83 | 315 | 7.0 | 7.0 | 0.00 | 0.00 | 0.00 | 37 | 1010.5 |
| 20260905111536 | 83 | 315 | 7.0 | 7.0 | 0.00 | 0.00 | 0.00 | 37 | 1010.5 |
| 20260905111038 | 83 | 45 | 5.0 | 5.0 | 0.00 | 0.00 | 0.00 | 35 | 1010.5 |
| 20260905110538 | 83 | 45 | 5.0 | 5.0 | 0.00 | 0.00 | 0.00 | 35 | 1010.5 |
| 20260905110053 | 83 | 22 | 4.0 | 4.0 | 0.00 | 0.00 | 0.00 | 35 | 1010.7 |
| 20260905105536 | 83 | 22 | 4.0 | 4.0 | 0.00 | 0.00 | 0.00 | 35 | 1010.7 |
| 20260905105058 | 83 | 0 | 4.0 | 4.0 | 0.00 | 0.00 | 0.00 | 35 | 1010.9 |
| 20260905104536 | 83 | 0 | 4.0 | 4.0 | 0.00 | 0.00 | 0.00 | 35 | 1010.9 |
| 20260905104038 | 83 | 338 | 7.0 | 7.0 | 0.00 | 0.00 | 0.00 | 35 | 1010.9 |
| 20260905103537 | 83 | 338 | 7.0 | 7.0 | 0.00 | 0.00 | 0.00 | 35 | 1010.9 |
| 20260905103038 | 82 | 22 | 4.0 | 4.0 | 0.00 | 0.00 | 0.00 | 35 | 1010.4 |
| 20260905102555 | 82 | 22 | 4.0 | 4.0 | 0.00 | 0.00 | 0.00 | 35 | 1010.4 |
| 20260905102036 | 81 | 338 | 2.0 | 2.0 | 0.00 | 0.00 | 0.00 | 37 | 1010.6 |
| 20260905101556 | 81 | 338 | 2.0 | 2.0 | 0.00 | 0.00 | 0.00 | 37 | 1010.6 |
| 20260905101037 | 82 | 338 | 7.0 | 7.0 | 0.00 | 0.00 | 0.00 | 38 | 1010.6 |
| 20260905100555 | 82 | 338 | 7.0 | 7.0 | 0.00 | 0.00 | 0.00 | 38 | 1010.6 |
| 20260905100043 | 82 | 338 | 7.0 | 7.0 | 0.00 | 0.00 | 0.00 | 38 | 1010.8 |
| 20260905095536 | 82 | 338 | 7.0 | 7.0 | 0.00 | 0.00 | 0.00 | 38 | 1010.8 |
| 20260905095037 | 82 | 22 | 4.0 | 4.0 | 0.00 | 0.00 | 0.00 | 39 | 1010.6 |
| 20260905094537 | 82 | 22 | 4.0 | 4.0 | 0.00 | 0.00 | 0.00 | 39 | 1010.6 |
| 20260905094036 | 81 | 315 | 0.0 | 0.0 | 0.00 | 0.00 | 0.00 | 40 | 1010.6 |
| 20260905093556 | 81 | 315 | 0.0 | 0.0 | 0.00 | 0.00 | 0.00 | 40 | 1010.6 |
| 20260905093039 | 81 | 22 | 1.0 | 1.0 | 0.00 | 0.00 | 0.00 | 40 | 1010.6 |
| 20260905092537 | 81 | 22 | 1.0 | 1.0 | 0.00 | 0.00 | 0.00 | 40 | 1010.6 |
| 20260905092037 | 81 | 315 | 4.0 | 4.0 | 0.00 | 0.00 | 0.00 | 40 | 1010.5 |
| 20260905091538 | 81 | 315 | 4.0 | 4.0 | 0.00 | 0.00 | 0.00 | 40 | 1010.5 |
| 20260905091037 | 81 | 0 | 7.0 | 7.0 | 0.00 | 0.00 | 0.00 | 40 | 1010.5 |
| 20260905090537 | 81 | 0 | 7.0 | 7.0 | 0.00 | 0.00 | 0.00 | 40 | 1010.5 |
| 20260905090043 | 81 | 0 | 7.0 | 7.0 | 0.00 | 0.00 | 0.00 | 39 | 1010.5 |
| 20260905085536 | 81 | 0 | 7.0 | 7.0 | 0.00 | 0.00 | 0.00 | 39 | 1010.5 |
| 20260905085038 | 81 | 338 | 4.0 | 4.0 | 0.00 | 0.00 | 0.00 | 39 | 1010.2 |
| 20260905084557 | 81 | 338 | 4.0 | 4.0 | 0.00 | 0.00 | 0.00 | 39 | 1010.2 |
| 20260905084036 | 81 | 338 | 6.0 | 6.0 | 0.00 | 0.00 | 0.00 | 39 | 1010.2 |
| 20260905083537 | 81 | 338 | 6.0 | 6.0 | 0.00 | 0.00 | 0.00 | 39 | 1010.2 |
| 20260905083047 | 82 | 0 | 4.0 | 4.0 | 0.00 | 0.00 | 0.00 | 38 | 1010.1 |
| 20260905082538 | 82 | 0 | 4.0 | 4.0 | 0.00 | 0.00 | 0.00 | 38 | 1010.1 |
| 20260905082034 | 82 | 338 | 2.0 | 2.0 | 0.00 | 0.00 | 0.00 | 37 | 1009.9 |
| 20260905081536 | 82 | 338 | 2.0 | 2.0 | 0.00 | 0.00 | 0.00 | 37 | 1009.9 |
| 20260905081043 | 82 | 338 | 0.0 | 0.0 | 0.00 | 0.00 | 0.00 | 36 | 1010.2 |
| 20260905080537 | 82 | 338 | 0.0 | 0.0 | 0.00 | 0.00 | 0.00 | 36 | 1010.2 |
| 20260905080037 | 82 | 338 | 0.0 | 0.0 | 0.00 | 0.00 | 0.00 | 36 | 1010.2 |
| 20260905075537 | 82 | 338 | 0.0 | 0.0 | 0.00 | 0.00 | 0.00 | 36 | 1010.2 |
| 20260905075038 | 82 | 22 | 1.0 | 1.0 | 0.00 | 0.00 | 0.00 | 37 | 1010.0 |
| 20260905074537 | 82 | 22 | 1.0 | 1.0 | 0.00 | 0.00 | 0.00 | 37 | 1010.0 |
| 20260905074037 | 82 | 45 | 0.0 | 0.0 | 0.00 | 0.00 | 0.00 | 37 | 1010.0 |
| 20260905073536 | 82 | 45 | 0.0 | 0.0 | 0.00 | 0.00 | 0.00 | 37 | 1010.0 |
| 20260905073036 | 81 | 45 | 0.0 | 0.0 | 0.00 | 0.00 | 0.00 | 37 | 1009.8 |
| 20260905072556 | 81 | 45 | 0.0 | 0.0 | 0.00 | 0.00 | 0.00 | 37 | 1009.8 |
| 20260905072037 | 80 | 225 | 1.0 | 1.0 | 0.00 | 0.00 | 0.00 | 38 | 1009.9 |
| 20260905071537 | 80 | 225 | 1.0 | 1.0 | 0.00 | 0.00 | 0.00 | 38 | 1009.9 |
| 20260905071037 | 81 | 292 | 0.0 | 0.0 | 0.00 | 0.00 | 0.00 | 38 | 1009.9 |
| 20260905070536 | 81 | 292 | 0.0 | 0.0 | 0.00 | 0.00 | 0.00 | 38 | 1009.9 |
| 20260905065554 | 82 | 202 | 0.0 | 0.0 | 0.00 | 0.00 | 0.00 | 37 | 1009.7 |
| 20260905065038 | 81 | 180 | 0.0 | 0.0 | 0.00 | 0.00 | 0.00 | 37 | 1009.7 |
| 20260905064536 | 81 | 180 | 0.0 | 0.0 | 0.00 | 0.00 | 0.00 | 37 | 1009.7 |
| 20260905064042 | 83 | 158 | 3.0 | 3.0 | 0.00 | 0.00 | 0.00 | 37 | 1009.7 |
| 20260905063538 | 83 | 158 | 3.0 | 3.0 | 0.00 | 0.00 | 0.00 | 37 | 1009.7 |
| 20260905063037 | 82 | 158 | 0.0 | 0.0 | 0.00 | 0.00 | 0.00 | 36 | 1010.0 |
| 20260905062537 | 82 | 158 | 0.0 | 0.0 | 0.00 | 0.00 | 0.00 | 36 | 1010.0 |
| 20260905062044 | 82 | 158 | 0.0 | 0.0 | 0.00 | 0.00 | 0.00 | 36 | 1009.9 |
| 20260905061538 | 82 | 158 | 0.0 | 0.0 | 0.00 | 0.00 | 0.00 | 36 | 1009.9 |
| 20260905061048 | 82 | 158 | 0.0 | 0.0 | 0.00 | 0.00 | 0.00 | 36 | 1009.9 |
| 20260905060538 | 82 | 158 | 0.0 | 0.0 | 0.00 | 0.00 | 0.00 | 36 | 1009.9 |
| 20260905060038 | 81 | 158 | 0.0 | 0.0 | 0.00 | 0.00 | 0.00 | 36 | 1009.9 |
| 20260905055536 | 81 | 158 | 0.0 | 0.0 | 0.00 | 0.00 | 0.00 | 36 | 1009.9 |
| 20260905055037 | 80 | 158 | 0.0 | 0.0 | 0.00 | 0.00 | 0.00 | 39 | 1009.8 |
| 20260905054557 | 80 | 158 | 0.0 | 0.0 | 0.00 | 0.00 | 0.00 | 39 | 1009.8 |
| 20260905054036 | 79 | 158 | 0.0 | 0.0 | 0.00 | 0.00 | 0.00 | 40 | 1009.8 |
| 20260905053539 | 79 | 158 | 0.0 | 0.0 | 0.00 | 0.00 | 0.00 | 40 | 1009.8 |
| 20260905053040 | 78 | 158 | 0.0 | 0.0 | 0.00 | 0.00 | 0.00 | 41 | 1009.9 |
| 20260905052538 | 78 | 158 | 0.0 | 0.0 | 0.00 | 0.00 | 0.00 | 41 | 1009.9 |
| 20260905052043 | 77 | 158 | 0.0 | 0.0 | 0.00 | 0.00 | 0.00 | 40 | 1009.7 |
| 20260905051540 | 77 | 158 | 0.0 | 0.0 | 0.00 | 0.00 | 0.00 | 40 | 1009.7 |
| 20260905051038 | 76 | 158 | 0.0 | 0.0 | 0.00 | 0.00 | 0.00 | 42 | 1009.7 |
| 20260905050538 | 76 | 158 | 0.0 | 0.0 | 0.00 | 0.00 | 0.00 | 42 | 1009.7 |
| 20260905050056 | 74 | 158 | 0.0 | 0.0 | 0.00 | 0.00 | 0.00 | 43 | 1009.9 |
| 20260905045536 | 74 | 158 | 0.0 | 0.0 | 0.00 | 0.00 | 0.00 | 43 | 1009.9 |
| 20260905045042 | 72 | 158 | 0.0 | 0.0 | 0.00 | 0.00 | 0.00 | 45 | 1010.0 |
| 20260905044537 | 72 | 158 | 0.0 | 0.0 | 0.00 | 0.00 | 0.00 | 45 | 1010.0 |
| 20260905044036 | 71 | 158 | 0.0 | 0.0 | 0.00 | 0.00 | 0.00 | 47 | 1010.0 |
| 20260905043537 | 71 | 158 | 0.0 | 0.0 | 0.00 | 0.00 | 0.00 | 47 | 1010.0 |
| 20260905043037 | 69 | 158 | 0.0 | 0.0 | 0.00 | 0.00 | 0.00 | 49 | 1009.7 |
| 20260905042536 | 69 | 158 | 0.0 | 0.0 | 0.00 | 0.00 | 0.00 | 49 | 1009.7 |
| 20260905042044 | 68 | 158 | 0.0 | 0.0 | 0.00 | 0.00 | 0.00 | 51 | 1009.8 |
| 20260905041537 | 68 | 158 | 0.0 | 0.0 | 0.00 | 0.00 | 0.00 | 51 | 1009.8 |
| 20260905041035 | 67 | 158 | 0.0 | 0.0 | 0.00 | 0.00 | 0.00 | 52 | 1009.8 |
| 20260905040558 | 67 | 158 | 0.0 | 0.0 | 0.00 | 0.00 | 0.00 | 52 | 1009.8 |
| 20260905040041 | 67 | 158 | 0.0 | 0.0 | 0.00 | 0.00 | 0.00 | 52 | 1009.8 |
| 20260905035537 | 67 | 158 | 0.0 | 0.0 | 0.00 | 0.00 | 0.00 | 52 | 1009.8 |
| 20260905035037 | 67 | 158 | 0.0 | 0.0 | 0.00 | 0.00 | 0.00 | 51 | 1009.8 |
| 20260905034536 | 67 | 158 | 0.0 | 0.0 | 0.00 | 0.00 | 0.00 | 51 | 1009.8 |
| 20260905034037 | 67 | 158 | 0.0 | 0.0 | 0.00 | 0.00 | 0.00 | 51 | 1009.8 |
| 20260905033555 | 67 | 158 | 0.0 | 0.0 | 0.00 | 0.00 | 0.00 | 51 | 1009.8 |
| 20260905033035 | 67 | 158 | 1.0 | 1.0 | 0.00 | 0.00 | 0.00 | 51 | 1009.7 |
| 20260905032535 | 67 | 158 | 1.0 | 1.0 | 0.00 | 0.00 | 0.00 | 51 | 1009.7 |
| 20260905032037 | 67 | 158 | 0.0 | 0.0 | 0.00 | 0.00 | 0.00 | 51 | 1009.8 |
| 20260905031536 | 67 | 158 | 0.0 | 0.0 | 0.00 | 0.00 | 0.00 | 51 | 1009.8 |
| 20260905031037 | 67 | 158 | 0.0 | 0.0 | 0.00 | 0.00 | 0.00 | 52 | 1009.8 |
| 20260905030535 | 67 | 158 | 0.0 | 0.0 | 0.00 | 0.00 | 0.00 | 52 | 1009.8 |
| 20260905030037 | 67 | 158 | 0.0 | 0.0 | 0.00 | 0.00 | 0.00 | 52 | 1009.9 |
| 20260905025537 | 67 | 158 | 0.0 | 0.0 | 0.00 | 0.00 | 0.00 | 52 | 1009.9 |
| 20260905025036 | 67 | 158 | 0.0 | 0.0 | 0.00 | 0.00 | 0.00 | 51 | 1009.8 |
| 20260905024536 | 67 | 158 | 0.0 | 0.0 | 0.00 | 0.00 | 0.00 | 51 | 1009.8 |
| 20260905024035 | 67 | 158 | 0.0 | 0.0 | 0.00 | 0.00 | 0.00 | 51 | 1009.8 |
| 20260905023536 | 67 | 158 | 0.0 | 0.0 | 0.00 | 0.00 | 0.00 | 51 | 1009.8 |
| 20260905023037 | 67 | 158 | 0.0 | 0.0 | 0.00 | 0.00 | 0.00 | 52 | 1009.8 |
| 20260905022537 | 67 | 158 | 0.0 | 0.0 | 0.00 | 0.00 | 0.00 | 52 | 1009.8 |
| 20260905022037 | 67 | 158 | 0.0 | 0.0 | 0.00 | 0.00 | 0.00 | 52 | 1009.8 |
| 20260905021537 | 67 | 158 | 0.0 | 0.0 | 0.00 | 0.00 | 0.00 | 52 | 1009.8 |
| 20260905021037 | 67 | 158 | 0.0 | 0.0 | 0.00 | 0.00 | 0.00 | 52 | 1009.8 |
| 20260905020536 | 67 | 158 | 0.0 | 0.0 | 0.00 | 0.00 | 0.00 | 52 | 1009.8 |
| 20260905020037 | 67 | 158 | 0.0 | 0.0 | 0.00 | 0.00 | 0.00 | 52 | 1009.8 |
| 20260905015535 | 67 | 158 | 0.0 | 0.0 | 0.00 | 0.00 | 0.00 | 52 | 1009.8 |